GW4137 Weather Reports


time (UTC)temp
C
wind
direction
speed
KPH
gust
KPH
rain 1hr
cm
rain 24hr
cm
rain mn
cm
humidity
%
barometer
mb
20260901100055 11 0 0.0 9.7 0.00 0.00 0.00 69 1013.1
20260901094559 8 169 6.4 9.7 0.00 0.00 0.00 74 1013.0
20260901093056 8 169 4.8 8.0 0.00 0.00 0.00 73 1013.0
20260901091604 9 169 4.8 8.0 0.00 0.00 0.00 71 1013.0
20260901084607 8 169 4.8 8.0 0.00 0.00 0.00 71 1013.1
20260901083103 8 169 4.8 9.7 0.00 0.00 0.00 71 1013.1
20260901081556 9 169 6.4 9.7 0.00 0.00 0.00 70 1013.2
20260901080107 10 169 4.8 8.0 0.00 0.00 0.00 67 1013.4
20260901074556 9 169 6.4 8.0 0.00 0.00 0.00 69 1013.6
20260901073100 9 0 0.0 0.0 0.00 0.00 0.00 68 1013.7
20260901071602 9 0 0.0 6.4 0.00 0.00 0.00 69 1013.8
20260901070100 9 169 6.4 8.0 0.00 0.00 0.00 67 1013.7
20260901064603 10 169 3.2 8.0 0.00 0.00 0.00 67 1013.8
20260901063058 10 169 4.8 8.0 0.00 0.00 0.00 66 1013.8
20260901061555 11 169 3.2 8.0 0.00 0.00 0.00 63 1014.0
20260901060101 12 169 6.4 9.7 0.00 0.00 0.00 57 1013.9
20260901054553 14 0 0.0 8.0 0.00 0.00 0.00 53 1014.0
20260901053106 14 169 0.0 6.4 0.00 0.00 0.00 52 1014.2
20260901051555 14 169 1.6 9.7 0.00 0.00 0.00 53 1014.1
20260901050055 13 0 0.0 0.0 0.00 0.00 0.00 55 1014.1
20260901044607 13 0 0.0 3.2 0.00 0.00 0.00 55 1014.2
20260901043100 13 0 0.0 3.2 0.00 0.00 0.00 55 1014.1
20260901041555 14 169 1.6 6.4 0.00 0.00 0.00 52 1014.0
20260901040057 15 0 0.0 6.4 0.00 0.00 0.00 49 1014.0
20260901034556 14 169 1.6 3.2 0.00 0.00 0.00 51 1014.0
20260901033054 15 0 0.0 0.0 0.00 0.00 0.00 49 1013.7
20260901031601 15 0 0.0 0.0 0.00 0.00 0.00 49 1013.7
20260901030057 15 0 0.0 0.0 0.00 0.00 0.00 48 1013.5
20260901024614 15 0 0.0 0.0 0.00 0.00 0.00 47 1013.3
20260901023100 16 0 0.0 3.2 0.00 0.00 0.00 43 1013.3
20260901021603 18 0 0.0 6.4 0.00 0.00 0.00 40 1013.2
20260901020100 20 0 0.0 3.2 0.00 0.00 0.00 38 1013.4
20260901014606 21 169 3.2 8.0 0.00 0.00 0.00 35 1013.5
20260901013117 22 169 4.8 9.7 0.00 0.00 0.00 32 1013.5
20260901011613 23 169 4.8 9.7 0.00 0.00 0.00 31 1013.5
20260901010123 23 169 4.8 14.5 0.00 0.00 0.00 30 1013.6
20260901004603 23 169 8.0 17.7 0.00 0.00 0.00 30 1013.7
20260901003057 23 169 9.7 19.3 0.00 0.00 0.00 30 1013.8
20260901001600 23 147 9.7 16.1 0.00 0.00 0.00 30 1013.9
20260831234630 24 182 3.2 12.9 0.00 0.00 0.00 30 1014.0
20260831233058 23 191 4.8 16.1 0.00 0.00 0.00 31 1014.0
20260831231552 23 0 0.0 14.5 0.00 0.00 0.00 30 1014.0
20260831230106 23 239 4.8 20.9 0.00 0.00 0.00 31 1014.1
20260831224554 23 298 1.6 17.7 0.00 0.00 0.00 31 1014.2
20260831223057 23 266 3.2 12.9 0.00 0.00 0.00 31 1014.3
20260831221603 23 296 1.6 12.9 0.00 0.00 0.00 31 1014.3
20260831220059 23 247 4.8 11.3 0.00 0.00 0.00 32 1014.4
20260831214605 23 0 8.0 24.1 0.00 0.00 0.00 33 1014.4
20260831213104 23 0 1.6 17.7 0.00 0.00 0.00 34 1014.5
20260831211558 22 309 12.9 20.9 0.00 0.00 0.00 34 1014.6
20260831210054 22 224 3.2 27.4 0.00 0.00 0.00 34 1014.5
20260831204609 22 250 9.7 19.3 0.00 0.00 0.00 35 1014.7
20260831203103 22 0 0.0 27.4 0.00 0.00 0.00 35 1014.7
20260831201608 22 245 8.0 22.5 0.00 0.00 0.00 37 1015.1
20260831200106 22 0 1.6 19.3 0.00 0.00 0.00 38 1015.1
20260831194603 21 265 11.3 25.7 0.00 0.00 0.00 38 1015.3
20260831193128 21 302 6.4 22.5 0.00 0.00 0.00 39 1015.3
20260831191554 21 265 9.7 20.9 0.00 0.00 0.00 38 1015.5
20260831190104 21 234 4.8 25.7 0.00 0.00 0.00 40 1015.6
20260831184558 20 293 3.2 19.3 0.00 0.00 0.00 41 1015.9
20260831183101 20 0 8.0 24.1 0.00 0.00 0.00 42 1016.1
20260831181608 20 302 3.2 19.3 0.00 0.00 0.00 43 1016.2
20260831180108 20 0 3.2 22.5 0.00 0.00 0.00 43 1016.2
20260831174556 20 317 11.3 22.5 0.00 0.00 0.00 44 1016.4
20260831173103 19 324 11.3 22.5 0.00 0.00 0.00 44 1016.3
20260831171555 19 324 12.9 22.5 0.00 0.00 0.00 46 1016.2
20260831170100 18 320 14.5 30.6 0.00 0.00 0.00 46 1016.1
20260831164609 18 332 17.7 30.6 0.00 0.00 0.00 47 1016.1
20260831163059 17 308 16.1 27.4 0.00 0.00 0.00 46 1016.0
20260831161605 17 297 16.1 29.0 0.00 0.00 0.00 47 1016.0
20260831160108 17 298 16.1 32.2 0.00 0.00 0.00 48 1015.9
20260831154627 16 308 19.3 29.0 0.00 0.00 0.00 49 1016.0
20260831153104 15 288 16.1 25.7 0.00 0.00 0.00 52 1015.9
20260831151608 15 292 20.9 32.2 0.00 0.00 0.00 54 1015.9
20260831150107 13 294 20.9 30.6 0.00 0.00 0.00 56 1015.7
20260831144604 13 291 14.5 30.6 0.00 0.00 0.00 59 1015.6
20260831143057 12 279 17.7 27.4 0.00 0.00 0.00 60 1015.3
20260831141554 12 287 14.5 24.1 0.00 0.00 0.00 63 1015.3
20260831140055 11 289 8.0 17.7 0.00 0.00 0.00 66 1015.3
20260831134606 10 296 6.4 14.5 0.00 0.00 0.00 69 1015.2
20260831133056 9 292 4.8 14.5 0.00 0.00 0.00 71 1015.0
20260831131601 8 292 8.0 17.7 0.00 0.00 0.00 73 1014.7
20260831130111 8 286 8.0 14.5 0.00 0.00 0.00 74 1014.7
20260831124553 8 285 8.0 14.5 0.00 0.03 0.00 74 1014.4
20260831123054 8 284 8.0 16.1 0.00 0.03 0.00 72 1014.1
20260831121600 9 293 11.3 19.3 0.00 0.03 0.00 70 1013.8
20260831120059 10 297 14.5 20.9 0.00 0.03 0.00 69 1013.7
20260831114555 10 289 14.5 22.5 0.00 0.03 0.00 68 1013.8
20260831113102 10 289 16.1 25.7 0.00 0.03 0.00 68 1013.8
20260831111555 10 292 14.5 25.7 0.00 0.03 0.00 67 1013.7
20260831110057 10 288 16.1 27.4 0.00 0.03 0.00 69 1013.7
20260831104559 8 288 12.9 19.3 0.00 0.03 0.00 75 1013.6
20260831103055 8 288 8.0 17.7 0.00 0.03 0.00 75 1013.6
20260831101552 8 287 9.7 16.1 0.00 0.03 0.00 75 1013.3